sat.trackr.live / text

‹ back to catalog

STARLINK-11291 [DTC]

NORAD 61208 · 2024-171J

PAYLOAD ACTIVE UNKNOWN

§ Identity

Operator
Country
US
Launch date
2024-09-20
Launch site
AFWTR
Launch vehicle
Mass (kg)
RCS (m²)

Purposes: comms

External: N2YO · Heavens-Above · Gunter

§ Orbital elements

Epoch: 2026-05-24T11:09:06.582528Z

Period
91.73 min
Inclination
53.1582°
Eccentricity
0.0000391
Mean motion
15.69759636 rev/d
Perigee alt
359.3 km
Apogee alt
359.8 km
Semi-major
6,737.7 km
B*
-8.3917e-5
RAAN
162.4529°
Arg perigee
58.4247°
Mean anomaly
301.6809°
Rev number
9,630

§ Raw data

STARLINK-11291 [DTC]1 61208U 24171J   26144.46465952 -.00010761  00000+0 -83917-4 0  99982 61208  53.1582 162.4529 0000391  58.4247 301.6809 15.69759636 96307

JSON: /api/v1/satellites/61208 · /tle

For live sub-satellite position, see the globe view (requires WebGL).

§ Visibility from observer

Set your observer location to see the next 7 days of passes ≥ 10°. The values pass through the URL so the page stays shareable.

No JS? Fill the form by hand. The geolocation button needs JavaScript.